Regional Weather Roundup
Issued by NWS

Home | Current Version | Previous Version | Text Only | Print | Product List | Glossary On
Versions: 1 2 3 4 5 6 7 8 9 10 11 12 13 14 15 16 17 18 19 20 21 22 23 24 25 26 27 28 29 30 31 32 33 34 35 36 37 38 39 40 41 42 43 44 45 46 47 48 49 50
000
ASUS43 KBIS 062302
RWRND

NORTH DAKOTA REGIONAL WEATHER ROUNDUP
NATIONAL WEATHER SERVICE BISMARCK ND
600 PM CDT MON JUL 06 2015

NOTE: "FAIR" INDICATES FEW OR NO CLOUDS BELOW 12,000 FEET WITH NO
SIGNIFICANT WEATHER AND/OR OBSTRUCTIONS TO VISIBILITY.


NDZ001>003-009>011-017-070000-
NORTHWEST NORTH DAKOTA

CITY           SKY/WX    TMP DP  RH WIND       PRES   REMARKS
WILLISTON      SUNNY     72  47  40 VRB5      30.18S
MINOT          SUNNY     67  43  41 NW9       30.17S
$$

NDZ018>021-031>035-040>046-070000-
SOUTHWEST NORTH DAKOTA

CITY           SKY/WX    TMP DP  RH WIND       PRES   REMARKS
BISMARCK       PTSUNNY   71  52  50 N10       30.15F HAZE
DICKINSON      MOSUNNY   71  51  49 NE9       30.16F
GARRISON         N/A     67  49  52 NE7       30.17S
HETTINGER ARPT MOSUNNY   72  48  42 N8        30.18F HAZE
$$

NDZ004>008-012>016-024-026-027-054-070000-
NORTHEAST NORTH DAKOTA

CITY           SKY/WX    TMP DP  RH WIND       PRES   REMARKS
GRAND FORKS    PTSUNNY   65  48  54 N16G25    30.11R
GRND FRKS AFB  MOSUNNY   64  47  54 N15G22    30.12R
DEVILS LAKE    PTSUNNY   64  45  48 N12       30.13S
$$

NDZ022-023-025-028>030-036>039-047>053-070000-
SOUTHEAST NORTH DAKOTA

CITY           SKY/WX    TMP DP  RH WIND       PRES   REMARKS
FARGO          PTSUNNY   66  47  50 N16G24    30.10S
JAMESTOWN      MOSUNNY   66  49  54 N16       30.13R
$$




USA.gov is the U.S. government's official web portal to all federal, state and local government web resources and services.